Regional Weather Roundup
Issued by NWS

Home | Current Version | Previous Version | Text Only | Print | Product List | Glossary Off
Versions: 1 2 3 4 5 6 7 8 9 10 11 12 13 14 15 16 17 18 19 20 21 22 23 24 25 26 27 28 29 30 31 32 33 34 35 36 37 38 39 40 41 42 43 44 45 46 47 48 49 50

000
ASUS45 KBOU 210207
RWRCO

WEATHER ROUNDUP FOR COLORADO
NATIONAL WEATHER SERVICE DENVER/BOULDER CO
800 PM MDT MON OCT 20 2014

NOTE: "FAIR" INDICATES FEW OR NO CLOUDS BELOW 12000 FEET WITH NO
SIGNIFICANT WEATHER AND/OR OBSTRUCTIONS TO VISIBILITY.

COZ001>005-013-030-031-210300-
...NORTHWEST COLORADO...

CITY           SKY/WX    TMP DP  RH WIND       PRES   REMARKS
CRAIG          PTCLDY    46  36  68 CALM      30.12R
HAYDEN         CLEAR     54  36  50 CALM      30.14R
MEEKER         CLEAR     49  38  65 NE3       30.13R
MOUNT WERNER   NOT AVBL
STEAMBOAT SPGS CLEAR     52  36  55 E6        30.15S
WALDEN         PTCLDY    41  30  65 SE6       30.22R
$$

COZ006>008-011-210300-
...WEST CENTRAL VALLEYS...

CITY           SKY/WX    TMP DP  RH WIND       PRES   REMARKS
GRAND JUNCTION PTCLDY    55  35  47 E3        30.04S
MONTROSE       PTCLDY    58  39  49 SE10      30.13R
EAGLE          CLOUDY    54  39  58 E6        30.17R
RIFLE          PTCLDY    55  38  52 SE9       30.08R
DELTA          MOCLDY    65  40  39 S3        30.08R
NUCLA          PTCLDY    59  37  44 E7        30.16R
$$

COZ017>023-064>068-210300-
...SOUTHWEST COLORADO...

CITY           SKY/WX    TMP DP  RH WIND       PRES   REMARKS
DURANGO        PTCLDY    54  42  64 N5        30.19R
CORTEZ         CLOUDY    60  42  51 N6        30.13R
PAGOSA SPRINGS PTCLDY    52  38  58 CALM      30.26R
TELLURIDE      PTCLDY    48  36  61 CALM      30.32R
WOLF CREEK PAS PTCLDY    36  28  75 S3        30.46S
$$

COZ009-010-012-014-032>034-037-058>063-210300-
...CENTRAL COLORADO...

CITY           SKY/WX    TMP DP  RH WIND       PRES   REMARKS
ASPEN          CLOUDY    52  36  54 CALM      30.23R
BUENA VISTA    PTCLDY    49  34  55 CALM      30.25S
COPPER MTN     CLOUDY    45  30  57 S13       30.45S
BERTHOUD PASS  FAIR      34  32  93 SW5       30.49S WCI  30
COTTONWOOD PAS CLOUDY    52  30  43 W6        30.35S
GUNNISON       PTCLDY    54  32  43 SE3       30.25R
KREMMLING      MOCLDY    54  32  43 CALM        N/A
LEADVILLE      CLOUDY    44  29  55 CALM      30.33R
SALIDA         PTCLDY    55  36  47 SW3       30.30S
SUNLIGHT       PTCLDY    43  34  70 CALM      30.40R
WILKERSON PASS NOT AVBL
$$

COZ069>075-210300-
...SAN LUIS VALLEY/SANGRE DE CRISTO MOUNTAINS...

CITY           SKY/WX    TMP DP  RH WIND       PRES   REMARKS
ALAMOSA        CLOUDY    54  37  52 N9        30.23R
LA VETA PASS   PTCLDY    45  30  57 E3        30.38S
SAGUACHE       PTCLDY    52  34  50 N8        30.25S
$$

COZ035-036-038>040-210300-
...NORTHERN COLORADO FRONT RANGE...

CITY           SKY/WX    TMP DP  RH WIND       PRES   REMARKS
DENVER INTL AP PTCLDY    61  34  36 S16       30.07S
DMNS CITY PARK   N/A     63  34  33 S7        30.06S
AURORA         PTCLDY    61  35  36 S22G31    30.08S
FRONT RANGE AP NOT AVBL
ERIE MUNI ARPT CLEAR     55  42  60 S3        30.04S
BOULDER MUN AP CLEAR     64  36  34 SW7       30.04F
CENTENNIAL     PTCLDY    60  35  39 S16       30.10R
BROOMFIELD     PTCLDY    64  37  36 CALM      30.08S
FORT COLLINS   CLEAR     61  41  48 S3        30.04S
LONGMONT       CLEAR     54  43  65 CALM      30.06S
$$

COZ041-046-047-076>085-087-088-210300-
...PIKES PEAK/PALMER DIVIDE AND SOUTHERN FOOTHILLS...

CITY           SKY/WX    TMP DP  RH WIND       PRES   REMARKS
COLO. SPRINGS  PTCLDY    57  37  47 SE10      30.20R
A. F. ACADEMY  CLEAR     53  34  48 SE10      30.20R
ELLICOTT       CLEAR     52  38  58 S10       30.18S
FALCON         CLEAR     50  35  56 S5        30.23S
FORT CARSON    CLEAR     57  36  45 SW7       30.17R
LIMON          CLEAR     48  39  71 SE8       30.15R
MONUMENT HILL  CLEAR     52  34  50 S20G25    30.18S
TRINIDAD       CLEAR     58  39  49 SE13      30.16R
$$

COZ042>045-048>051-090-091-210300-
...NORTHEAST COLORADO...

CITY           SKY/WX    TMP DP  RH WIND       PRES   REMARKS
GREELEY ARPT   CLEAR     57  34  41 SE8       30.04S
AKRON          CLEAR     59  38  45 S13       30.09R
BURLINGTON     CLEAR     57  40  52 S12       30.11F
WRAY           CLEAR     62  39  43 S10       30.08R
STERLING       CLEAR     64  41  42 S13       30.04S
HOLYOKE        CLEAR     61  39  44 S8        30.07R
FORT MORGAN    CLEAR     60  34  37 SE12      30.07R
$$

COZ086-089-092>099-210300-
...SOUTHEAST COLORADO...

CITY           SKY/WX    TMP DP  RH WIND       PRES   REMARKS
PUEBLO         CLEAR     60  39  45 E9        30.10R
LA JUNTA       CLEAR     62  43  49 SE12      30.10S
LAMAR          CLEAR     58  43  57 SE13      30.09R
SPRINGFIELD      N/A     53  48  83 SE8       30.14S
$$


USA.gov is the U.S. government's official web portal to all federal, state and local government web resources and services.